Regional Weather Roundup
Issued by NWS

Home | Current Version | Previous Version | Text Only | Print | Product List | Glossary Off
Versions: 1 2 3 4 5 6 7 8 9 10 11 12 13 14 15 16 17 18 19 20 21 22 23 24 25 26 27 28 29 30 31 32 33 34 35 36 37 38 39 40 41 42 43 44 45 46 47 48 49 50

795
ASUS45 KSLC 211910
RWRUT

UTAH REGIONAL WEATHER ROUNDUP
NATIONAL WEATHER SERVICE SALT LAKE CITY UT
1200 PM MST WED FEB 21 2018

UTZ001>011-023>025-212000-

NORTHERN UTAH

CITY           SKY/WX    TMP DP  RH WIND       PRES   REMARKS
DUGWAY         PTSUNNY   24  11  58 S5        30.16F WCI  18
HILL AFB       PTSUNNY   20   4  50 E12       30.13S WCI   8
LOGAN            N/A     16   4  59 NW5       30.18S WCI   9
OGDEN            N/A     25   5  42 CALM      30.14F
SALT LAKE CITY PTSUNNY   29  12  49 N6        30.15F WCI  23
TOOELE VALLEY    N/A     25  12  58 S6        30.15F WCI  18
WENDOVER         N/A     25  12  58 E7        30.15F WCI  17
HEBER CITY       N/A     14   1  57 CALM      30.11F
WEST JORDAN      N/A     24  11  58 SE8       30.14S WCI  15

$$

UTZ011>015-024>027-212000-

CENTRAL/NORTHEAST UTAH

CITY           SKY/WX    TMP DP  RH WIND       PRES   REMARKS
PROVO AIRPORT    N/A     21  10  62 SW6       30.17F WCI  13
MOAB/CANYONLAN   N/A     33  11  39 NE3       30.11F
DELTA            N/A     19  12  73 NW5       30.13S WCI  13
PRICE            N/A     25  -1  32 CALM      30.09F
VERNAL           N/A     17   7  64 VRB3      30.17F

$$

UTZ013>016-019>022-027-212000-

SOUTHERN UTAH

CITY           SKY/WX    TMP DP  RH WIND       PRES   REMARKS
BRYCE CANYON   PTSUNNY   23   3  42 S12       29.99F WCI  12
CEDAR CITY     PTSUNNY   23  10  57 NE6       30.03S WCI  16
MILFORD          N/A     19  12  74 N6        30.09S WCI  11
ST GEORGE        N/A     38  10  31 CALM      30.12F
BLANDING         N/A     33  11  40 S12G17    30.14F WCI  24

$$

REGIONAL REPORTS     COLORADO/ARIZONA

CITY           SKY/WX    TMP DP  RH WIND       PRES   REMARKS
CRAIG, CO        N/A     12   1  61 CALM      30.11F
GRAND JUNCTION   N/A     32   9  38 SE10      30.12F WCI  24
RIFLE, CO        N/A     24   9  52 CALM      30.11F
MONTROSE, CO     N/A     25  13  60 W6        30.11F WCI  18
CORTEZ, CO     PTSUNNY   36  13  38 S7G21     30.06F WCI  30
PAGE, AZ         N/A     36   7  29 E5        30.08F WCI  32
GRAND CANYON   CLOUDY    30   7  37 SW12      30.01F WCI  20
KINGMAN, AZ    CLOUDY    40   2  20 CALM      30.09S
FLAGSTAFF, AZ    N/A     29   6  38 S9G17     29.99F WCI  20

$$

REGIONAL REPORTS    NEVADA/IDAHO/WYOMING

CITY           SKY/WX    TMP DP  RH WIND       PRES   REMARKS
LAS VEGAS, NV  PTSUNNY   47   1  15 N6        30.13S
ELY, NY          N/A     25   3  38 CALM      30.01F
ELKO, NV       CLOUDY    24   5  44 CALM      30.09F
POCATELLO, ID    N/A     27  11  51 CALM      30.14S
BURLEY, ID       N/A     25   9  50 VRB5      30.12S WCI  19
FORT BRIDGER,    N/A     -1  -5  82 NW3       30.09
EVANSTON, WY   CLOUDY    12  -4  48 CALM      30.03F
ROCK SPRINGS,    N/A     10   1  67 CALM      30.09S

$$




USA.gov is the U.S. government's official web portal to all federal, state and local government web resources and services.